Find Feng Yun 3B

NORAD ID: 37214 Int'l Des: 2010-059 Owner: NSMC Country: CN operational
LEOCIRCULARRETROGRADESSO

实时位置

正在加载3D地球...

关于 Feng Yun 3B

正在加载描述...

即将过境

Passes for default location (London). Set your location on the main map for personalized predictions.

高度历史

Loading altitude history...

两行轨道根数

1 37214U 10059A 26104.53001399 .00000031 00000-0 39235-4 0 9995
2 37214 98.9698 150.2553 0022317 10.2303 126.1798 14.14827091798424
Epoch: Apr 14, 2026 • Age: 3 hours

当前状态

高度 859.0 km
速度 7.42 km/s
星下点 28.55°N, 110.3°W
发射日期 Nov 4, 2010
运行时间 15.4 years
类型 other

技术详情

分类 Payload
质量 2200.00 kg
干质量 2130.00 kg
总质量 2200.00 kg
长度 4.40 m
直径 2.00 m
跨度 10.00 m
形状 Box + 2 Pan
制造商 SISE
平台类型 FY-3
阶段状态 In Orbit
所有者/国家 NSMC/CN

Most Searched